Wind_Speed
8 11 12 14 16 16 17 17 17 16 16 15 15 15 15 15 17 18 18 19 19 18 18 15 14 13 14 13 13 12 13 14 15 15 17 17 18 18 18 19 20 20 18 17 16 18 17 18 18
8 10 11 13 15 16 16 16 16 17 17 17 18 18 16 16 17 19 20 21 20 17 15 14 14 14 14 15 15 16 16 17 18 19 20 20 20 20 21 22 22 22 21 20 19 18 18 18 17
7 8 11 13 15 16 16 15 14 18 18 18 19 19 17 17 19 20 19 19 18 17 16 16 16 16 17 17 18 19 20 21 22 22 23 22 22 23 24 25 25 25 24 22 20 18 17 18 17
6 7 10 12 15 16 16 15 16 18 17 18 21 19 18 17 18 18 16 16 18 19 19 20 20 20 20 20 21 22 23 24 25 25 25 25 26 27 27 28 27 25 24 23 22 20 18 18 18
12 12 13 15 17 17 16 17 19 21 19 20 23 19 15 15 17 19 19 18 19 21 22 22 23 23 23 24 25 26 27 27 27 27 27 28 28 29 28 27 27 25 24 23 21 20 19 19 19
12 13 16 18 19 19 19 19 22 24 21 19 20 18 17 19 21 23 23 24 23 22 24 25 24 25 26 27 27 28 28 28 28 28 29 28 28 27 27 26 25 26 25 24 22 20 20 20 20
14 15 17 18 19 18 17 17 20 22 22 19 20 21 22 23 24 25 25 26 26 25 25 26 28 28 28 29 28 28 28 28 28 29 29 28 28 28 27 27 26 27 27 27 26 23 22 20 21
16 17 18 19 20 20 19 19 21 23 24 22 22 24 25 25 26 27 27 28 29 29 27 26 27 30 30 29 28 28 27 27 27 27 27 27 27 27 27 27 27 28 29 29 29 27 25 23 22
16 18 19 20 21 21 21 22 22 23 26 24 25 26 28 28 29 30 31 31 31 30 29 27 27 28 29 28 27 27 26 26 26 26 26 27 28 29 29 29 30 30 30 31 32 31 28 26 25
16 18 20 21 23 24 24 24 23 23 25 26 27 28 29 31 32 33 32 32 32 30 28 27 27 27 28 29 28 28 28 29 29 30 30 31 31 32 33 34 33 33 33 33 34 34 32 30 28
15 19 20 20 21 25 26 25 25 24 25 29 30 31 31 31 31 30 29 28 28 28 27 26 26 27 30 32 32 32 33 34 35 36 36 37 38 38 38 39 38 38 38 37 37 36 36 35 32
14 17 18 18 19 22 24 25 24 23 25 28 30 29 28 27 26 25 23 23 25 27 29 30 30 31 33 36 37 38 39 40 41 41 42 42 43 43 44 43 41 41 41 41 40 40 40 39 37
14 16 17 16 17 19 20 21 20 21 23 24 25 24 24 25 26 26 27 28 30 32 33 35 37 39 39 40 41 43 44 44 45 46 47 47 47 47 47 45 42 41 41 41 41 42 42 41 41
10 11 13 14 14 14 16 17 18 20 21 23 24 25 26 27 30 32 34 36 37 39 41 42 43 44 45 45 45 46 46 46 47 47 48 49 49 49 49 46 42 40 41 42 44 44 45 46 47
11 12 14 16 18 19 19 17 21 24 25 27 28 30 32 33 36 38 41 43 44 45 46 47 48 48 49 49 49 48 48 47 47 47 48 49 50 50 49 47 45 43 44 45 47 48 49 50 51
14 15 16 18 20 21 21 16 22 26 28 28 30 31 32 34 36 39 41 44 46 48 48 49 49 50 50 50 49 49 48 47 47 47 48 48 48 48 48 48 48 49 49 48 49 50 51 51 52
15 16 16 18 21 21 21 15 19 23 25 26 28 30 31 34 36 38 42 45 48 49 50 50 50 51 51 51 50 49 48 47 47 47 48 47 47 47 47 48 49 50 51 50 49 49 51 53 54
16 17 18 20 23 23 24 23 25 27 28 30 33 34 36 38 40 42 44 47 51 52 52 52 52 52 51 49 47 46 46 45 45 46 46 46 46 45 45 44 45 45 46 47 47 48 50 52 54
16 18 18 20 23 27 30 30 31 32 32 34 38 40 41 42 44 46 48 51 55 55 53 52 52 51 49 46 44 42 43 43 44 44 43 42 41 41 40 41 42 43 45 48 51 52 53 54 56
19 20 22 24 28 30 32 32 35 37 37 38 41 44 45 47 49 51 51 53 56 54 51 51 49 47 45 43 41 41 40 40 40 39 37 37 37 38 40 42 44 46 48 50 54 56 58 58 59
21 23 26 28 30 34 37 36 40 41 43 44 47 49 50 52 52 52 50 51 54 51 50 50 50 45 41 40 38 37 36 36 34 33 34 35 37 39 42 45 48 50 52 55 58 60 62 63 62
23 27 29 31 34 37 41 44 44 45 46 48 49 51 53 55 55 54 49 50 49 49 52 54 53 50 46 41 36 35 34 34 34 33 34 36 38 41 44 48 52 55 58 60 62 64 66 66 65
28 30 32 34 38 42 45 49 50 52 53 54 55 57 58 59 59 53 49 51 51 52 53 52 48 47 46 41 35 34 34 34 34 34 35 38 42 46 50 53 55 57 59 61 62 63 65 67 68
34 37 38 41 45 48 51 55 54 54 57 58 59 59 59 57 53 48 50 53 51 50 50 46 44 46 42 34 32 33 33 32 32 34 37 41 45 48 51 54 56 58 59 59 59 60 62 63 65
40 43 46 49 52 54 57 61 60 60 60 59 58 56 54 51 45 41 46 48 48 47 46 45 48 49 42 33 33 33 31 31 32 37 40 42 43 47 51 52 48 45 45 47 50 54 58 61 63
47 49 51 55 58 59 61 64 63 62 58 54 51 48 46 45 40 36 41 45 47 49 48 50 55 51 35 32 33 31 31 32 34 40 40 41 43 46 45 38 37 41 43 46 48 52 58 60 61
53 55 57 59 62 64 66 66 66 64 55 48 43 41 42 41 39 39 41 44 47 51 51 56 58 39 33 33 33 32 32 32 37 39 39 42 42 38 36 37 38 38 40 44 48 51 54 56 55
56 58 59 59 63 68 68 67 64 61 53 46 42 42 41 41 41 42 44 47 49 53 53 57 48 36 34 33 31 32 32 34 37 37 40 43 39 36 36 35 35 37 40 44 47 47 45 45 47
57 58 59 61 63 64 67 67 64 58 52 48 43 41 41 42 42 43 46 50 52 53 50 54 47 37 36 32 32 32 32 35 36 37 40 39 36 35 36 34 36 38 41 43 44 45 44 40 40
61 62 61 60 63 65 63 68 61 55 52 49 47 46 46 45 42 41 44 48 49 46 44 46 41 38 34 32 33 34 34 35 34 36 38 36 35 36 34 33 35 36 36 38 40 41 41 37 35
Wind_Direction
214 213 214 218 225 231 236 237 238 238 241 248 256 264 271 279 282 284 289 287 286 286 285 282 275 270 270 271 272 272 274 276 278 281 287 290 292 297 301 304 305 304 303 304 302 300 300 303 302
225 223 225 231 236 242 247 252 255 255 253 256 259 264 270 277 283 285 285 284 283 281 277 276 272 266 265 264 265 268 271 273 275 281 286 289 292 295 299 302 304 303 304 304 301 296 292 295 297
228 231 236 243 249 252 255 259 260 256 256 258 264 272 280 284 284 282 280 278 278 275 272 271 269 267 265 263 263 264 266 269 274 280 284 287 288 289 292 297 300 301 302 303 303 295 286 285 291
235 236 243 248 251 255 259 260 256 256 262 269 272 277 285 284 279 275 272 274 276 274 270 270 269 268 266 265 266 266 268 270 274 278 281 282 282 284 288 292 295 298 300 301 303 300 288 282 285
245 247 249 255 261 265 271 271 270 269 270 270 272 274 274 270 270 272 272 271 273 276 276 274 274 272 270 268 268 270 271 272 273 275 277 280 283 287 290 291 293 296 299 301 302 302 294 286 280
251 252 253 255 257 261 264 271 272 271 267 263 269 272 274 272 274 278 282 281 279 278 278 278 273 273 273 273 272 273 274 274 274 275 278 282 285 287 289 290 292 294 297 299 300 299 296 289 282
254 256 257 261 264 266 267 265 266 267 265 266 272 276 278 280 283 284 285 285 284 282 279 277 276 272 271 273 274 275 275 275 275 276 277 279 280 282 284 286 289 291 292 294 294 294 293 290 284
262 262 262 265 269 272 270 268 268 271 273 276 278 281 284 287 288 288 287 286 286 285 282 279 277 277 276 275 276 276 276 276 277 278 281 282 283 284 285 287 288 289 288 289 289 288 286 285 284
266 269 271 272 273 274 274 273 273 276 279 282 283 286 290 292 290 289 288 285 283 280 280 280 276 275 277 277 275 274 275 276 278 280 282 283 284 285 286 286 286 286 285 285 285 285 284 281 278
271 273 275 276 275 274 272 271 273 274 278 281 283 287 289 289 289 287 286 286 285 283 281 280 281 282 283 284 282 283 284 285 286 286 284 283 283 285 286 286 285 283 282 280 280 280 281 280 277
278 277 282 281 279 279 278 276 274 276 280 284 287 288 289 288 287 287 288 288 288 290 289 285 284 287 287 286 286 286 287 287 287 286 285 285 284 283 283 284 283 282 280 279 278 276 276 277 277
279 278 283 284 285 284 286 286 285 286 283 282 286 290 292 292 291 291 290 287 286 286 286 285 282 280 280 282 283 283 283 284 284 285 283 281 279 279 278 278 277 277 277 277 276 275 275 275 275
274 280 288 290 286 284 285 286 290 287 284 285 286 285 284 286 288 288 288 285 283 283 282 281 280 280 279 279 279 279 280 280 280 280 280 279 277 275 275 274 272 272 272 273 272 271 272 273 273
292 289 292 297 299 299 295 300 299 289 287 286 289 289 288 287 288 288 287 286 285 284 283 283 282 281 280 279 279 278 277 277 278 277 276 275 274 274 273 270 268 267 267 268 269 269 269 269 269
293 291 291 297 304 307 307 314 302 299 297 296 296 295 294 294 293 291 291 289 288 286 285 283 281 279 278 277 277 277 277 276 274 272 270 270 270 269 269 269 268 266 266 267 268 269 269 269 269
292 296 298 302 304 305 307 313 301 300 299 300 303 303 302 299 298 296 294 292 290 288 287 285 283 282 281 280 279 278 276 274 271 268 267 267 268 269 269 269 269 269 270 270 271 271 271 272 271
302 305 308 303 301 303 305 307 293 296 302 308 309 308 306 303 302 300 298 297 294 292 290 289 287 285 283 282 280 278 275 272 269 268 267 267 267 267 268 268 268 269 270 271 271 272 272 272 272
300 303 306 305 305 312 315 314 312 312 314 314 311 310 309 308 305 300 297 295 292 291 290 290 289 287 285 283 280 277 273 270 268 268 268 268 268 267 266 266 267 269 270 271 272 272 272 272 272
295 298 303 306 308 314 314 314 312 311 310 309 309 309 308 306 304 301 297 295 292 290 290 288 287 285 283 281 277 274 272 272 270 267 264 263 265 267 269 270 272 274 275 275 275 273 272 271 271
303 305 307 308 306 305 305 311 308 306 304 300 300 300 298 298 299 300 299 295 291 289 287 286 284 282 279 276 273 272 270 267 265 264 265 266 268 270 271 272 272 272 272 272 273 274 274 272 270
308 308 307 304 301 301 303 309 307 303 301 301 298 297 296 297 297 298 298 292 290 288 286 285 282 278 274 271 269 266 264 262 262 264 267 269 273 276 278 278 276 275 274 274 273 272 271 270 269
307 307 307 306 305 304 306 307 309 303 300 297 298 300 302 300 296 296 293 288 286 283 284 285 282 275 270 265 264 266 267 264 265 269 272 275 278 281 282 282 281 280 278 275 272 270 267 266 264
303 301 302 302 302 303 303 303 307 302 297 295 296 298 297 295 294 292 287 284 283 283 284 284 283 277 272 267 266 266 265 269 274 278 281 284 288 289 288 285 281 277 275 272 271 271 270 268 266
301 300 299 300 300 300 300 300 304 301 296 296 297 298 298 296 293 289 284 284 286 286 283 278 275 274 270 262 263 263 266 272 278 283 287 288 289 287 284 282 280 279 278 277 277 277 276 273 270
303 301 300 300 300 302 302 303 307 303 303 303 301 300 297 292 288 284 280 281 284 283 280 275 270 268 265 254 260 264 268 275 280 284 287 286 286 286 285 285 285 285 283 281 281 280 279 276 272
304 303 302 302 302 300 300 302 303 304 305 304 300 296 292 289 286 281 280 281 280 279 281 277 275 272 257 260 264 264 270 275 282 287 287 287 288 286 283 280 284 286 283 283 285 284 281 277 272
305 303 302 302 300 299 301 301 304 307 308 304 298 292 289 287 285 281 278 278 277 277 280 281 286 272 264 263 262 266 271 276 284 286 286 288 288 283 279 283 287 287 290 293 295 296 289 281 275
304 304 305 304 303 302 301 302 307 308 307 303 300 293 286 284 283 280 276 275 275 276 278 281 283 278 269 261 260 268 270 277 285 286 290 293 290 285 285 284 284 288 294 300 305 308 301 284 277
304 304 304 303 303 303 303 303 306 307 303 301 298 291 286 283 283 279 278 276 274 275 277 280 280 273 264 258 261 266 272 283 289 292 294 291 288 288 286 283 286 291 296 301 306 310 309 295 281
305 307 307 306 304 302 300 302 304 299 297 295 290 284 282 278 279 282 282 279 277 277 280 280 271 264 262 262 266 269 275 282 288 295 296 292 290 290 283 281 285 291 295 299 305 310 314 308 288
Height
5856 5856 5857 5858 5859 5860 5860 5861 5861 5862 5862 5862 5862 5862 5862 5862 5861 5862 5860 5857 5856 5856 5854 5853 5851 5851 5850 5849 5848 5848 5847 5846 5845 5844 5844 5843 5842 5841 5840 5839 5838 5837 5836 5835 5834 5832 5831 5830 5830
5855 5856 5857 5858 5857 5858 5859 5859 5860 5861 5860 5860 5859 5859 5860 5860 5858 5857 5855 5854 5853 5852 5851 5850 5849 5848 5847 5846 5846 5846 5845 5844 5843 5842 5841 5840 5839 5838 5837 5836 5835 5834 5833 5832 5831 5829 5828 5827 5827
5854 5855 5857 5856 5856 5857 5858 5858 5858 5856 5857 5857 5855 5856 5857 5857 5855 5853 5853 5851 5849 5849 5848 5847 5846 5846 5845 5844 5843 5842 5842 5841 5839 5838 5837 5836 5835 5834 5834 5833 5831 5830 5829 5828 5828 5826 5825 5824 5823
5854 5854 5855 5855 5854 5854 5855 5856 5854 5854 5855 5853 5853 5853 5853 5852 5850 5849 5849 5849 5847 5846 5845 5844 5843 5843 5842 5840 5839 5839 5838 5836 5836 5835 5833 5832 5831 5830 5829 5829 5827 5826 5825 5825 5824 5823 5822 5821 5820
5852 5853 5853 5852 5852 5853 5854 5854 5853 5852 5853 5851 5848 5850 5849 5848 5846 5845 5845 5846 5845 5843 5841 5841 5840 5839 5838 5836 5835 5834 5833 5832 5831 5830 5829 5828 5827 5826 5825 5823 5822 5822 5821 5820 5820 5819 5818 5817 5816
5850 5850 5851 5850 5849 5850 5850 5850 5849 5848 5848 5847 5845 5846 5846 5844 5842 5842 5841 5840 5841 5840 5838 5836 5836 5835 5833 5832 5831 5830 5828 5827 5826 5825 5824 5823 5822 5821 5819 5818 5817 5816 5816 5816 5815 5815 5814 5813 5812
5848 5848 5847 5847 5847 5848 5848 5847 5846 5844 5844 5844 5843 5842 5841 5840 5838 5838 5837 5835 5834 5834 5833 5831 5830 5829 5828 5827 5826 5825 5823 5822 5821 5820 5819 5818 5817 5815 5815 5814 5813 5812 5811 5811 5810 5810 5809 5809 5808
5845 5846 5845 5845 5845 5845 5845 5844 5843 5841 5840 5841 5839 5838 5837 5836 5834 5833 5832 5830 5829 5828 5827 5826 5825 5823 5822 5822 5820 5819 5818 5817 5816 5815 5814 5813 5812 5811 5810 5809 5808 5807 5806 5805 5804 5804 5804 5803 5803
5842 5843 5841 5842 5841 5841 5841 5840 5840 5838 5835 5836 5834 5833 5832 5830 5829 5828 5826 5825 5823 5822 5821 5821 5820 5818 5816 5816 5815 5813 5812 5811 5811 5810 5809 5808 5807 5806 5805 5803 5802 5802 5801 5800 5799 5797 5797 5797 5798
5838 5838 5837 5838 5836 5835 5835 5834 5834 5833 5831 5830 5829 5828 5827 5825 5823 5822 5821 5818 5816 5816 5816 5815 5814 5812 5811 5809 5808 5808 5806 5805 5804 5804 5803 5802 5801 5799 5798 5796 5796 5795 5794 5793 5793 5792 5791 5790 5791
5834 5834 5833 5832 5831 5829 5828 5828 5827 5827 5826 5824 5822 5822 5821 5819 5817 5815 5815 5812 5810 5808 5808 5809 5809 5807 5805 5803 5802 5801 5800 5798 5797 5796 5795 5794 5793 5791 5790 5789 5788 5787 5786 5785 5785 5785 5783 5783 5783
5830 5829 5828 5827 5826 5824 5822 5821 5821 5822 5822 5819 5817 5814 5812 5811 5809 5809 5809 5808 5806 5804 5803 5802 5802 5801 5799 5796 5794 5793 5791 5790 5788 5786 5785 5785 5783 5782 5781 5780 5779 5777 5777 5776 5776 5776 5775 5775 5775
5827 5825 5825 5824 5822 5820 5818 5817 5817 5817 5814 5812 5811 5809 5807 5805 5804 5803 5802 5802 5801 5799 5798 5796 5794 5793 5791 5789 5787 5784 5782 5781 5779 5777 5775 5774 5773 5772 5772 5771 5769 5768 5767 5766 5765 5765 5765 5765 5766
5824 5823 5822 5820 5819 5817 5815 5814 5813 5811 5810 5808 5806 5805 5803 5802 5800 5798 5796 5794 5793 5791 5789 5787 5785 5783 5780 5778 5776 5774 5772 5770 5768 5766 5765 5763 5762 5760 5759 5759 5758 5757 5757 5756 5755 5754 5755 5755 5755
5820 5820 5819 5817 5814 5813 5812 5812 5809 5806 5805 5803 5801 5799 5797 5795 5792 5790 5787 5785 5783 5781 5778 5776 5773 5770 5768 5766 5764 5762 5760 5759 5757 5756 5754 5752 5751 5750 5749 5748 5747 5747 5747 5746 5745 5744 5743 5743 5743
5816 5815 5814 5812 5809 5807 5807 5808 5804 5800 5798 5796 5795 5792 5790 5788 5786 5783 5779 5776 5773 5770 5767 5764 5760 5757 5755 5753 5751 5749 5748 5746 5745 5743 5742 5741 5740 5739 5738 5738 5736 5736 5736 5735 5735 5734 5732 5732 5732
5811 5810 5808 5807 5803 5801 5800 5801 5798 5795 5792 5790 5787 5784 5781 5779 5777 5774 5770 5766 5762 5758 5755 5752 5749 5746 5743 5740 5738 5736 5735 5733 5732 5731 5731 5730 5729 5728 5727 5726 5725 5724 5724 5724 5724 5723 5721 5720 5720
5805 5803 5802 5799 5796 5794 5793 5792 5790 5786 5784 5781 5778 5775 5772 5769 5766 5762 5759 5754 5749 5745 5742 5739 5736 5734 5731 5729 5726 5724 5722 5721 5721 5720 5718 5718 5717 5716 5715 5715 5713 5713 5712 5712 5712 5711 5710 5709 5707
5800 5798 5797 5796 5792 5789 5786 5785 5782 5779 5776 5772 5768 5765 5762 5758 5755 5751 5748 5742 5736 5732 5730 5727 5724 5722 5719 5717 5714 5713 5711 5710 5709 5708 5708 5707 5706 5705 5704 5704 5703 5701 5700 5699 5698 5697 5696 5695 5693
5796 5794 5791 5789 5785 5783 5781 5779 5776 5772 5768 5763 5758 5754 5749 5746 5743 5739 5735 5729 5722 5721 5718 5714 5711 5709 5706 5704 5703 5701 5700 5699 5698 5697 5696 5695 5695 5694 5693 5692 5690 5689 5688 5685 5683 5681 5680 5680 5678
5789 5787 5784 5782 5779 5775 5773 5773 5769 5765 5760 5754 5747 5742 5738 5734 5730 5725 5721 5715 5710 5708 5706 5702 5699 5696 5694 5692 5691 5690 5689 5689 5688 5687 5686 5685 5683 5680 5679 5677 5676 5674 5672 5669 5667 5665 5664 5664 5663
5783 5780 5777 5773 5769 5766 5762 5760 5760 5754 5749 5742 5736 5730 5724 5719 5715 5711 5707 5701 5698 5696 5694 5689 5686 5683 5681 5679 5678 5677 5678 5677 5677 5676 5674 5673 5671 5669 5667 5664 5661 5658 5654 5651 5649 5647 5645 5644 5645
5775 5772 5769 5765 5760 5756 5752 5748 5749 5741 5735 5729 5723 5718 5712 5707 5702 5698 5692 5688 5684 5681 5678 5674 5671 5669 5668 5667 5667 5666 5667 5666 5665 5664 5662 5660 5657 5654 5651 5648 5646 5643 5640 5636 5632 5629 5627 5623 5623
5767 5764 5761 5756 5751 5746 5740 5735 5735 5729 5720 5715 5709 5703 5696 5690 5687 5683 5678 5673 5670 5667 5664 5661 5659 5656 5655 5655 5656 5656 5656 5656 5655 5653 5651 5648 5644 5641 5637 5633 5629 5626 5622 5619 5616 5613 5609 5605 5602
5759 5753 5748 5744 5739 5734 5725 5719 5719 5711 5703 5699 5694 5687 5682 5677 5673 5670 5664 5660 5658 5654 5651 5649 5648 5645 5644 5644 5644 5645 5645 5645 5644 5643 5640 5637 5632 5628 5623 5618 5614 5611 5608 5605 5602 5598 5593 5588 5584
5748 5741 5734 5728 5723 5721 5714 5707 5704 5698 5692 5685 5679 5674 5668 5663 5660 5658 5654 5650 5647 5641 5639 5638 5634 5634 5632 5632 5632 5633 5634 5634 5633 5631 5628 5624 5620 5615 5609 5605 5603 5600 5596 5592 5588 5582 5575 5569 5565
5736 5727 5719 5712 5706 5702 5700 5696 5691 5683 5675 5669 5665 5660 5655 5650 5647 5645 5642 5638 5635 5630 5628 5626 5624 5623 5622 5622 5622 5623 5623 5623 5622 5619 5616 5612 5606 5600 5596 5593 5590 5587 5582 5576 5571 5566 5558 5551 5547
5724 5714 5705 5695 5686 5681 5681 5679 5679 5666 5659 5653 5650 5646 5641 5638 5633 5630 5628 5625 5622 5618 5616 5614 5613 5613 5611 5611 5611 5612 5613 5613 5611 5606 5601 5596 5591 5587 5583 5579 5577 5573 5569 5563 5557 5550 5542 5536 5533
5712 5702 5690 5681 5673 5663 5658 5665 5663 5652 5643 5640 5635 5628 5624 5620 5618 5616 5613 5609 5607 5604 5602 5601 5603 5602 5601 5601 5601 5602 5602 5600 5597 5592 5588 5583 5578 5574 5570 5567 5564 5561 5556 5550 5544 5538 5530 5524 5520
5700 5689 5676 5664 5658 5650 5638 5645 5646 5636 5628 5625 5619 5613 5609 5607 5606 5603 5599 5596 5594 5593 5592 5590 5590 5591 5592 5591 5590 5589 5588 5587 5584 5580 5576 5570 5567 5563 5559 5556 5554 5550 5546 5541 5535 5529 5521 5513 5509